Norwood, MA

8:20 PM EST on December 03, 2016 (GMT -0500)
Norwood Memorial

Weather History for KOWD - November, 2012

Change the Weather History Date:

Friday, November 9, 2012

  Actual Average Record
Temperature  
Mean Temperature 44 °F -  
Max Temperature 55 °F 50 °F 70 °F (2011)
Min Temperature 32 °F 30 °F 15 °F (2003)
Degree Days  
Heating Degree Days 21    
Moisture  
Dew Point 26 °F    
Average Humidity 52    
Maximum Humidity 75    
Minimum Humidity 24    
Precipitation  
Precipitation 0.00 in - - ()
Sea Level Pressure  
Sea Level Pressure 29.93 in    
Wind  
Wind Speed 9 mph (NW)    
Max Wind Speed 13 mph    
Max Gust Speed 22 mph    
Visibility 10 miles    
Events      
Averages and records for this station are not official NWS values.
T = Trace of Precipitation, MM = Missing Value Source: NWS Daily Summary

Daily Weather History Graph

Daily Weather History Graph

Search for Another Location

Airport or City:

Trip Planner

Search our weather history database for the weather conditions in past years. The results will help you decide how hot, cold, wet, or windy it might be!

Date:

Astronomy

Nov. 09, 2012 Rise Set
Actual Time 6:28 AM EST 4:28 PM EST
Civil Twilight 5:58 AM EST 4:58 PM EST
Nautical Twilight 5:24 AM EST 5:31 PM EST
Astronomical Twilight 4:52 AM EST 6:04 PM EST
Moon 1:18 AM EST (11/9) 1:44 PM EST (11/9)
Length of Visible Light 10h 59m
Length of Day
10h 00m
Waning Crescent, 23% of the Moon is Illuminated
Nov 9
Waning Crescent
Nov 13
New
Nov 20
First Quarter
Nov 28
Full
Dec 6
Last Quarter

Hourly Weather History & Observations

Time (EST) Temp. Windchill Dew Point Humidity Pressure Visibility Wind Dir Wind Speed Gust Speed Precip Events Conditions
12:53 AM 41.0 °F 35.8 °F 30.9 °F 67% 29.75 in 10.0 mi NW 8.1 mph - N/A   Overcast
1:06 AM 41.0 °F 35.8 °F 30.2 °F 65% 29.75 in 10.0 mi NW 8.1 mph - N/A   Overcast
1:53 AM 41.0 °F 33.9 °F 30.0 °F 65% 29.77 in 10.0 mi NW 12.7 mph 21.9 mph N/A   Overcast
2:53 AM 41.0 °F 33.9 °F 30.0 °F 65% 29.78 in 10.0 mi NNW 12.7 mph 20.7 mph N/A   Overcast
3:53 AM 39.9 °F 34.5 °F 28.9 °F 65% 29.80 in 10.0 mi NW 8.1 mph - N/A   Scattered Clouds
4:53 AM 39.0 °F 33.4 °F 28.9 °F 67% 29.82 in 10.0 mi NW 8.1 mph - N/A   Mostly Cloudy
5:53 AM 39.0 °F 32.8 °F 28.9 °F 67% 29.84 in 10.0 mi NW 9.2 mph - N/A   Clear
6:53 AM 37.9 °F 30.9 °F 28.0 °F 68% 29.87 in 10.0 mi NW 10.4 mph - N/A   Clear
7:53 AM 41.0 °F 34.3 °F 28.9 °F 62% 29.90 in 10.0 mi NW 11.5 mph 18.4 mph N/A   Clear
8:53 AM 44.1 °F 38.1 °F 28.9 °F 55% 29.89 in 10.0 mi NNW 11.5 mph 20.7 mph N/A   Clear
9:53 AM 46.9 °F - 28.9 °F 50% 29.91 in 10.0 mi NW 12.7 mph 20.7 mph N/A   Clear
10:53 AM 50.0 °F - 30.0 °F 46% 29.93 in 10.0 mi NNW 12.7 mph 19.6 mph N/A   Clear
11:53 AM 53.1 °F - 28.0 °F 38% 29.92 in 10.0 mi NW 10.4 mph 18.4 mph N/A   Clear
12:53 PM 53.1 °F - 21.9 °F 30% 29.91 in 10.0 mi NW 8.1 mph - N/A   Partly Cloudy
1:53 PM 55.0 °F - 19.0 °F 24% 29.92 in 10.0 mi NNW 11.5 mph - N/A   Clear
2:53 PM 55.9 °F - 19.9 °F 25% 29.94 in 10.0 mi NW 11.5 mph - N/A   Clear
3:53 PM 53.1 °F - 19.9 °F 27% 29.96 in 10.0 mi WNW 8.1 mph - N/A   Clear
4:53 PM 50.0 °F - 19.9 °F 31% 29.99 in 10.0 mi WNW 10.4 mph - N/A   Clear
5:53 PM 48.9 °F - 19.0 °F 31% 30.03 in 10.0 mi NW 6.9 mph - N/A   Clear
6:53 PM 46.9 °F - 21.0 °F 36% 30.06 in 10.0 mi NW 8.1 mph - N/A   Clear
7:53 PM 44.1 °F 42.5 °F 23.0 °F 43% 30.06 in 10.0 mi WNW 3.5 mph - N/A   Clear
8:53 PM 36.0 °F - 24.1 °F 62% 30.09 in 10.0 mi Calm Calm - N/A   Clear
9:53 PM 34.0 °F - 26.1 °F 73% 30.09 in 10.0 mi Calm Calm - N/A   Clear
10:53 PM 33.1 °F - 25.0 °F 72% 30.10 in 10.0 mi Calm Calm - N/A   Clear
11:53 PM 32.0 °F - 25.0 °F 75% 30.11 in 10.0 mi Calm Calm - N/A   Clear